[[{"header":{"parameterUnit":"m.s-1","parameterCategory":1,"la1":30.2991,"la2":30.254,"lo1":-89.0895,"lo2":-89.0444,"dy":0.0017,"dx":0.0017,"nx":28,"ny":28,"refTime":"2024-11-26T09:00:00:Z","depth":0,"parameterNumber":2,"parameterNumberName":"U-component_of_WINDS"},"data":[0,0,0,0,0,0,0,0,0,0,0,0,0,0,0,0,0,0,0,0,0,0,0,0,0,0,0,0,0,0,0,0,0,0,0,0,0,0,0,0,0,0,0,0,0,0,0,0,0,0,0,0,0,0,0,0,0,0,-1.1727,-1.1727,0,-1.1779,-1.178,-1.178,-1.1766,-1.1765,-1.1764,-1.1763,-1.1817,-1.182,-1.1822,0,0,0,0,0,0,0,0,0,0,0,0,0,-1.1614,-1.1616,-1.1727,-1.1727,-1.1728,-1.1779,-1.178,-1.178,-1.1766,-1.1765,-1.1764,-1.1763,-1.1817,-1.1819,-1.1822,0,0,0,0,0,0,0,0,0,0,0,0,0,-1.1665,-1.1617,-1.1727,-1.1727,-1.1728,-1.1779,-1.178,-1.1781,-1.1767,-1.1765,-1.1764,-1.1762,-1.1816,-1.1819,-1.1823,-1.1877,0,0,-1.1834,-1.1835,0,0,0,0,0,0,0,0,-1.1662,-1.1669,-1.1726,-1.1727,-1.1728,-1.1764,-1.176,-1.1813,-1.1767,-1.1752,-1.1763,-1.1761,-1.1801,-1.1806,-1.1819,-1.1879,-1.1881,-1.1834,-1.1836,-1.1838,-1.1839,0,0,0,0,0,0,0,-1.1658,-1.1666,-1.1747,-1.1727,-1.1728,-1.1725,-1.173,-1.177,-1.1785,-1.1753,-1.1752,-1.1759,-1.1801,-1.1816,-1.182,-1.1882,-1.1834,-1.1837,-1.1839,-1.1841,-1.1988,-1.199,0,0,0,0,0,0,-1.1654,-1.1664,-1.1746,-1.1749,-1.169,-1.1728,-1.1734,-1.1754,-1.1784,-1.1787,-1.176,-1.1758,-1.181,-1.1816,-1.1822,-1.1887,-1.1838,-1.1841,-1.1843,-1.1987,-1.1989,-1.1991,0,0,0,0,0,0,-1.1652,-1.1662,-1.1744,-1.1706,-1.1716,-1.1732,-1.1755,-1.1756,-1.1771,-1.1789,-1.1792,-1.1772,-1.1809,-1.1817,-1.1863,-1.1889,-1.1843,-1.1846,-1.1985,-1.1987,-1.199,-1.2017,0,0,0,0,0,0,-1.1649,-1.1661,-1.1682,-1.1707,-1.1718,-1.1784,-1.1756,-1.1758,-1.1777,-1.1775,-1.1801,-1.1804,-1.1809,-1.1858,-1.1867,-1.1893,-1.1849,-1.1982,-1.1986,-1.1989,-1.2014,-1.2021,-1.2026,0,0,0,0,0,-1.1645,-1.1688,-1.1683,-1.1693,-1.1745,-1.1785,-1.1792,-1.1796,-1.1779,-1.18,-1.1812,-1.1803,-1.1884,-1.1862,-1.1872,-1.19,-1.1981,-1.1985,-1.1989,-1.2012,-1.2019,-1.2026,0,0,0,0,0,0,-1.1666,-1.1691,-1.1686,-1.1738,-1.176,-1.1783,-1.181,-1.1804,-1.1831,-1.1828,-1.1832,-1.1838,-1.1885,-1.1897,-1.1872,-1.1953,-1.193,-1.1936,-1.1944,-1.1952,-1.1957,-1.1954,-1.1852,0,0,0,0,0,-1.1677,-1.1708,-1.1728,-1.1772,-1.1783,-1.1794,-1.1812,-1.1813,-1.1836,-1.1845,-1.186,-1.1882,-1.1913,-1.1933,-1.1962,-1.2015,-1.2021,-1.2039,-1.2045,-1.205,-1.2056,-1.2085,-1.2093,-1.2003,-1.2003,-1.2003,0,0,-1.17,-1.1717,-1.1736,-1.1777,-1.1794,-1.1826,-1.1802,-1.1837,-1.1861,-1.185,-1.1895,-1.1906,-1.1931,-1.1981,-1.2004,-1.1993,-1.2081,-1.2055,-1.2059,-1.2062,-1.209,-1.2098,-1.2106,-1.2006,-1.2006,-1.2005,0,0,-1.1757,-1.1774,-1.1812,-1.1829,-1.1854,-1.1861,-1.1871,-1.1894,-1.1902,-1.1946,-1.1939,-1.1967,-1.2019,-1.2037,-1.2053,-1.2116,-1.2109,-1.2125,-1.2156,-1.2185,-1.2192,-1.2198,-1.2221,-1.2229,-1.213,-1.213,-1.213,0,-1.1783,-1.1831,-1.1833,-1.1868,-1.1886,-1.1877,-1.1916,-1.1932,-1.1966,-1.1978,-1.1965,-1.203,-1.2046,-1.21,-1.2115,-1.2128,-1.2139,-1.2123,-1.219,-1.2197,-1.2203,-1.2224,-1.2233,-1.2132,-1.2132,-1.2132,-1.2132,0,-1.186,-1.1893,-1.1921,-1.1954,-1.1974,-1.2012,-1.2019,-1.204,-1.2039,-1.2047,-1.2092,-1.2111,-1.2143,-1.2156,-1.2155,-1.2209,-1.2202,-1.2189,-1.2166,-1.2213,-1.2234,-1.2242,-1.2135,-1.2134,-1.2133,-1.2133,0,0,-1.1935,-1.1967,-1.1977,-1.1991,-1.2018,-1.2044,-1.208,-1.2111,-1.2129,-1.2152,-1.2182,-1.2226,-1.2214,-1.2232,-1.2233,-1.2258,-1.2307,-1.2243,-1.2243,-1.2254,-1.2368,-1.2378,-1.2387,-1.2302,-1.2303,-1.2305,-1.2366,0,-1.1995,-1.2059,-1.2062,-1.212,-1.215,-1.2141,-1.2173,-1.2192,-1.2201,-1.2228,-1.2237,-1.2268,-1.225,-1.2261,-1.2285,-1.2296,-1.233,-1.2291,-1.2331,-1.2332,-1.2326,-1.2398,-1.2409,-1.2466,-1.2374,-1.2375,-1.2376,0,-1.2075,-1.21,-1.2161,-1.2183,-1.2196,-1.2224,-1.2252,-1.2278,-1.23,-1.2304,-1.2323,-1.232,-1.2357,-1.2331,-1.2382,-1.2356,-1.2372,-1.2379,-1.2382,-1.2386,-1.2358,-1.2405,-1.2484,-1.2493,-1.2389,-1.2388,-1.2387,0,-1.2124,-1.2173,-1.2215,-1.2228,-1.2254,-1.2274,-1.2286,-1.2306,-1.2324,-1.2348,-1.236,-1.2389,-1.2405,-1.2427,-1.2432,-1.2412,-1.2482,-1.2457,-1.2487,-1.2487,-1.2503,-1.2502,-1.2586,-1.2512,-1.2512,-1.2512,-1.2512,0,-1.2192,-1.223,-1.2238,-1.2264,-1.2306,-1.2308,-1.2349,-1.2359,-1.2377,-1.2405,-1.2399,-1.2425,-1.2429,-1.2457,-1.246,-1.2502,-1.2509,-1.2513,-1.2514,-1.2515,-1.2514,-1.2526,-1.2522,-1.2514,-1.2513,-1.2513,-1.2513,0,-1.2254,-1.2261,-1.2307,-1.2327,-1.2333,-1.2363,-1.238,-1.2406,-1.2412,-1.2448,-1.2456,-1.2468,-1.2499,-1.2506,-1.2544,-1.2546,-1.2595,-1.2592,-1.2588,-1.2588,-1.2618,-1.2615,-1.2713,-1.2726,-1.2643,-1.2643,-1.2644,0,-1.2298,-1.2327,-1.235,-1.2368,-1.238,-1.241,-1.2428,-1.243,-1.245,-1.2476,-1.2498,-1.2529,-1.2554,-1.2605,-1.2616,-1.2645,-1.2642,-1.2675,-1.2647,-1.2646,-1.2644,-1.2642,-1.2645,-1.268,-1.2681,-1.2682,-1.2683,0,-1.2375,-1.2376,-1.2403,-1.243,-1.2452,-1.2474,-1.2495,-1.251,-1.2515,-1.2537,-1.2569,-1.2589,-1.2627,-1.2658,-1.2686,-1.2698,-1.2691,-1.2691,-1.27,-1.2701,-1.2698,-1.27,-1.2603,-1.2689,-1.2688,-1.2688,-1.2688,-1.2687,-1.2429,-1.2454,-1.2474,-1.2504,-1.2519,-1.2539,-1.2563,-1.2573,-1.2599,-1.263,-1.263,-1.2665,-1.2685,-1.2722,-1.2736,-1.2763,-1.2753,-1.2765,-1.2769,-1.2772,-1.2775,-1.2692,-1.2768,-1.2768,-1.2768,-1.2768,-1.2767,0,-1.2506,-1.2518,-1.2545,-1.2574,-1.2597,-1.2588,-1.261,-1.263,-1.2661,-1.268,-1.2704,-1.2741,-1.2771,-1.2784,-1.2813,-1.2832,-1.283,-1.284,-1.2839,-1.2842,-1.2782,-1.2772,-1.2841,-1.2841,-1.2841,-1.2841,-1.2841,-1.2841,-1.2549,-1.2591,-1.2594,-1.2643,-1.2655,-1.2689,-1.2702,-1.272,-1.2735,-1.2776,-1.28,-1.2808,-1.2825,-1.2855,-1.2881,-1.2884,-1.2896,-1.2907,-1.2909,-1.2853,-1.2846,-1.2839,-1.2829,-1.2909,-1.2909,-1.2966,-1.2967,-1.2967]},{"header":{"parameterUnit":"m.s-1","parameterCategory":1,"la1":30.2991,"la2":30.254,"lo1":-89.0895,"lo2":-89.0444,"dy":0.0017,"dx":0.0017,"nx":28,"ny":28,"refTime":"2024-11-26T09:00:00:Z","depth":0,"parameterNumber":3,"parameterNumberName":"V-component_of_WINDS"},"data":[0,0,0,0,0,0,0,0,0,0,0,0,0,0,0,0,0,0,0,0,0,0,0,0,0,0,0,0,0,0,0,0,0,0,0,0,0,0,0,0,0,0,0,0,0,0,0,0,0,0,0,0,0,0,0,0,0,0,-2.8119,-2.8119,0,-2.8155,-2.8156,-2.8156,-2.8125,-2.8124,-2.8123,-2.8121,-2.8156,-2.8158,-2.816,0,0,0,0,0,0,0,0,0,0,0,0,0,-2.8021,-2.8023,-2.8119,-2.812,-2.812,-2.8155,-2.8156,-2.8156,-2.8125,-2.8124,-2.8122,-2.8121,-2.8155,-2.8158,-2.816,0,0,0,0,0,0,0,0,0,0,0,0,0,-2.8061,-2.8023,-2.8119,-2.8109,-2.8108,-2.8155,-2.8156,-2.8156,-2.8126,-2.8124,-2.8122,-2.812,-2.8155,-2.8158,-2.8161,-2.8219,0,0,-2.817,-2.8172,0,0,0,0,0,0,0,0,-2.8058,-2.8064,-2.811,-2.811,-2.8109,-2.8134,-2.8134,-2.8177,-2.8126,-2.8119,-2.8121,-2.8119,-2.815,-2.8153,-2.8164,-2.822,-2.8222,-2.8171,-2.8173,-2.8174,-2.8175,0,0,0,0,0,0,0,-2.8056,-2.8063,-2.8133,-2.8111,-2.811,-2.8102,-2.8105,-2.8142,-2.8145,-2.8119,-2.8117,-2.8122,-2.8149,-2.8161,-2.8165,-2.8222,-2.8171,-2.8173,-2.8175,-2.8177,-2.8326,-2.8328,0,0,0,0,0,0,-2.8054,-2.806,-2.8132,-2.8134,-2.8079,-2.8105,-2.8109,-2.8128,-2.8144,-2.8145,-2.8124,-2.8121,-2.8157,-2.8161,-2.8166,-2.8234,-2.8174,-2.8177,-2.8179,-2.8324,-2.8327,-2.8329,0,0,0,0,0,0,-2.8052,-2.8061,-2.8131,-2.8097,-2.8105,-2.8109,-2.813,-2.8129,-2.8141,-2.8148,-2.8148,-2.8136,-2.8156,-2.8162,-2.8206,-2.8235,-2.8178,-2.8181,-2.8322,-2.8325,-2.8328,-2.8371,0,0,0,0,0,0,-2.805,-2.806,-2.8083,-2.8098,-2.8107,-2.8171,-2.8132,-2.8132,-2.8147,-2.8143,-2.8159,-2.8159,-2.8155,-2.8201,-2.8209,-2.8238,-2.8184,-2.8319,-2.8323,-2.8327,-2.8367,-2.8376,-2.8383,0,0,0,0,0,-2.8046,-2.8094,-2.8085,-2.8093,-2.8136,-2.8172,-2.8178,-2.8172,-2.815,-2.8172,-2.8176,-2.8159,-2.8231,-2.8206,-2.8214,-2.8245,-2.8317,-2.8322,-2.8326,-2.8364,-2.8374,-2.8383,0,0,0,0,0,0,-2.8082,-2.8096,-2.8085,-2.8139,-2.8155,-2.8167,-2.8195,-2.8183,-2.8205,-2.82,-2.8191,-2.8195,-2.8241,-2.8248,-2.822,-2.8301,-2.827,-2.8277,-2.8296,-2.8305,-2.8313,-2.831,-2.8186,0,0,0,0,0,-2.8097,-2.8126,-2.8136,-2.8182,-2.8191,-2.8192,-2.8208,-2.8202,-2.8217,-2.8224,-2.8231,-2.8246,-2.8272,-2.8289,-2.8313,-2.8368,-2.837,-2.8393,-2.8401,-2.8407,-2.8413,-2.8442,-2.8452,-2.8344,-2.8344,-2.8344,0,0,-2.8126,-2.8137,-2.8156,-2.819,-2.8201,-2.8231,-2.8198,-2.8231,-2.8253,-2.8228,-2.8271,-2.8276,-2.8292,-2.8342,-2.8364,-2.8349,-2.8443,-2.8413,-2.8418,-2.842,-2.8448,-2.8458,-2.8467,-2.8347,-2.8347,-2.8346,0,0,-2.8196,-2.8207,-2.8247,-2.8259,-2.8277,-2.8277,-2.8287,-2.8301,-2.8304,-2.8346,-2.8328,-2.8354,-2.8399,-2.8411,-2.8423,-2.8496,-2.8481,-2.8504,-2.8544,-2.8572,-2.858,-2.8588,-2.8613,-2.8623,-2.851,-2.851,-2.851,0,-2.823,-2.8275,-2.8269,-2.8303,-2.8318,-2.8298,-2.8338,-2.8349,-2.8374,-2.8384,-2.8367,-2.8422,-2.8432,-2.8484,-2.8502,-2.8512,-2.8522,-2.8502,-2.858,-2.8587,-2.8594,-2.8618,-2.8628,-2.8512,-2.8512,-2.8512,-2.8511,0,-2.8316,-2.8348,-2.8378,-2.8403,-2.8421,-2.8458,-2.8456,-2.8475,-2.8467,-2.8469,-2.8511,-2.8522,-2.8548,-2.856,-2.8552,-2.861,-2.86,-2.8581,-2.855,-2.8607,-2.863,-2.8639,-2.8516,-2.8515,-2.8514,-2.8514,0,0,-2.841,-2.843,-2.8441,-2.8452,-2.847,-2.8494,-2.8529,-2.8555,-2.8571,-2.8589,-2.8617,-2.8656,-2.8638,-2.8652,-2.8646,-2.867,-2.8727,-2.8649,-2.8649,-2.8662,-2.879,-2.8804,-2.8815,-2.8717,-2.8719,-2.872,-2.8789,0,-2.8479,-2.8542,-2.8537,-2.8596,-2.8624,-2.8605,-2.8636,-2.8649,-2.8652,-2.8676,-2.8678,-2.8705,-2.868,-2.8688,-2.8712,-2.8715,-2.8752,-2.871,-2.8743,-2.8744,-2.8739,-2.8827,-2.8842,-2.8906,-2.8798,-2.8799,-2.88,0,-2.8569,-2.859,-2.8652,-2.8665,-2.8677,-2.8705,-2.8728,-2.8751,-2.8766,-2.8765,-2.8781,-2.877,-2.8804,-2.8772,-2.8819,-2.879,-2.8803,-2.8807,-2.8809,-2.8812,-2.8776,-2.8832,-2.8927,-2.8936,-2.8814,-2.8813,-2.8812,0,-2.8631,-2.8674,-2.8717,-2.8727,-2.8743,-2.8763,-2.8771,-2.8784,-2.8799,-2.8819,-2.8828,-2.8851,-2.8864,-2.8882,-2.8877,-2.8854,-2.8925,-2.8892,-2.8925,-2.8925,-2.8941,-2.894,-2.9039,-2.895,-2.8949,-2.8949,-2.8949,0,-2.8709,-2.8747,-2.8745,-2.8771,-2.8813,-2.8806,-2.8847,-2.8852,-2.8864,-2.889,-2.8875,-2.8899,-2.8892,-2.8916,-2.8912,-2.8951,-2.8957,-2.8957,-2.8956,-2.8958,-2.8958,-2.8967,-2.8962,-2.8952,-2.8951,-2.8951,-2.895,0,-2.8785,-2.8784,-2.8829,-2.8841,-2.8845,-2.8875,-2.8885,-2.8909,-2.891,-2.8943,-2.895,-2.8952,-2.8979,-2.8976,-2.9006,-2.9004,-2.9052,-2.9046,-2.9048,-2.9046,-2.9079,-2.9076,-2.9187,-2.92,-2.9103,-2.9103,-2.9104,0,-2.8834,-2.8864,-2.8879,-2.8895,-2.8904,-2.8931,-2.8947,-2.8941,-2.8958,-2.8977,-2.8998,-2.9024,-2.9045,-2.9089,-2.9092,-2.9115,-2.9108,-2.9146,-2.9112,-2.9113,-2.9108,-2.9107,-2.9109,-2.9152,-2.9153,-2.9154,-2.9155,0,-2.8923,-2.8921,-2.8945,-2.8969,-2.8988,-2.9006,-2.9023,-2.9037,-2.9032,-2.9052,-2.908,-2.9096,-2.9127,-2.9152,-2.9174,-2.9181,-2.9167,-2.9166,-2.9174,-2.9177,-2.9177,-2.9177,-2.9065,-2.9163,-2.9162,-2.9162,-2.9161,-2.9161,-2.8987,-2.9011,-2.9026,-2.9052,-2.9064,-2.908,-2.9103,-2.9107,-2.913,-2.9156,-2.915,-2.9182,-2.9195,-2.9222,-2.9231,-2.9255,-2.9241,-2.9254,-2.9257,-2.926,-2.9264,-2.9174,-2.9259,-2.9259,-2.9258,-2.9258,-2.9258,0,-2.9074,-2.9082,-2.9107,-2.913,-2.9151,-2.9137,-2.9154,-2.9172,-2.92,-2.9214,-2.9234,-2.9266,-2.9291,-2.9296,-2.9319,-2.9337,-2.9331,-2.9343,-2.9342,-2.9343,-2.9275,-2.9265,-2.9348,-2.9348,-2.9348,-2.9348,-2.9348,-2.9348,-2.9121,-2.9162,-2.9162,-2.9208,-2.9216,-2.9247,-2.9258,-2.9272,-2.9283,-2.9319,-2.934,-2.9343,-2.9353,-2.9377,-2.9399,-2.9399,-2.9408,-2.9423,-2.9421,-2.9357,-2.9348,-2.934,-2.933,-2.9425,-2.9425,-2.9487,-2.9488,-2.9488]}]]